Weather History for Fort Polk, LA

Change the Weather History Date:

Sunday, June 30, 2013

  Actual Average (KPOE) Record (KPOE)
Temperature  
Mean Temperature 80 °F -  
Max Temperature 93 °F 88 °F 96 °F (1998)
Min Temperature 66 °F 70 °F 68 °F (2001)
Cooling Degree Days 14    
Growing Degree Days 30 (Base 50)    
Moisture  
Dew Point 60 °F    
Average Humidity 54    
Maximum Humidity 87    
Minimum Humidity 29    
Precipitation  
Precipitation 0.00 in - - ()
Sea Level Pressure  
Sea Level Pressure 29.86 in    
Wind  
Wind Speed 2 mph (North)    
Max Wind Speed 9 mph    
Max Gust Speed -    
Visibility 10 miles    
Events      
Averages and records for this station are not official NWS values.
T = Trace of Precipitation, MM = Missing Value Source: NWS Daily Summary

Daily Weather History Graph

Daily Weather History Graph

Search for Another Location

Airport:

Trip Planner

Search our weather history database for the weather conditions in past years. The results will help you decide how hot, cold, wet, or windy it might be!

Date:

Astronomy

Jun. 30, 2013 Rise Set
Actual Time 6:11 AM CDT 8:19 PM CDT
Civil Twilight 5:43 AM CDT 8:47 PM CDT
Nautical Twilight 5:09 AM CDT 9:20 PM CDT
Astronomical Twilight 4:33 AM CDT 9:57 PM CDT
Moon 12:51 AM CDT (6/30) 1:51 PM CDT (6/30)
Length of Visible Light 15h 03m
Length of Day
14h 07m
Last Quarter, 45% of the Moon is Illuminated
Jun 30
Last Quarter
Jul 8
New
Jul 15
First Quarter
Jul 22
Full
Jul 29
Last Quarter

Hourly Weather History & Observations

Time (CDT) Temp. Heat Index Dew Point Humidity Pressure Visibility Wind Dir Wind Speed Gust Speed Precip Events Conditions
12:54 AM 73.0 °F - 66.9 °F 81% 29.85 in 10.0 mi Calm Calm - N/A   Clear
1:54 AM 72.0 °F - 66.9 °F 84% 29.85 in 10.0 mi Calm Calm - N/A   Clear
2:54 AM 70.0 °F - 64.9 °F 84% 29.83 in 10.0 mi Calm Calm - N/A   Clear
3:54 AM 69.1 °F - 64.0 °F 84% 29.83 in 10.0 mi Calm Calm - N/A   Clear
4:54 AM 69.1 °F - 63.0 °F 81% 29.83 in 10.0 mi Calm Calm - N/A   Clear
5:54 AM 66.9 °F - 63.0 °F 87% 29.85 in 10.0 mi Calm Calm - N/A   Clear
6:54 AM 66.0 °F - 62.1 °F 87% 29.85 in 10.0 mi Calm Calm - N/A   Clear
7:54 AM 77.0 °F - 64.9 °F 66% 29.87 in 10.0 mi Calm Calm - N/A   Clear
8:54 AM 82.9 °F 83.3 °F 61.0 °F 47% 29.87 in 10.0 mi Calm Calm - N/A   Clear
9:54 AM 86.0 °F 86.1 °F 61.0 °F 43% 29.87 in 10.0 mi Variable 4.6 mph - N/A   Clear
10:54 AM 89.1 °F 88.8 °F 60.1 °F 38% 29.87 in 10.0 mi Variable 4.6 mph - N/A   Clear
11:54 AM 90.0 °F 88.6 °F 57.0 °F 33% 29.88 in 10.0 mi Variable 5.8 mph - N/A   Clear
12:54 PM 91.9 °F 90.6 °F 57.0 °F 31% 29.86 in 10.0 mi Variable 6.9 mph - N/A   Partly Cloudy
1:54 PM 91.9 °F 90.0 °F 55.0 °F 29% 29.86 in 10.0 mi Variable 5.8 mph - N/A   Partly Cloudy
2:54 PM 93.0 °F 91.4 °F 55.9 °F 29% 29.85 in 10.0 mi North 9.2 mph - N/A   Clear
3:54 PM 93.9 °F 92.9 °F 57.9 °F 30% 29.85 in 10.0 mi Variable 3.5 mph - N/A   Mostly Cloudy
4:54 PM 91.9 °F 90.6 °F 57.0 °F 31% 29.84 in 10.0 mi Variable 5.8 mph - N/A   Partly Cloudy
5:54 PM 91.0 °F 88.9 °F 55.0 °F 29% 29.83 in 10.0 mi Variable 3.5 mph - N/A   Clear
6:54 PM 89.1 °F 87.7 °F 57.0 °F 34% 29.84 in 10.0 mi Variable 3.5 mph - N/A   Partly Cloudy
7:54 PM 84.0 °F 83.3 °F 57.0 °F 40% 29.85 in 10.0 mi Variable 3.5 mph - N/A   Clear
8:54 PM 79.0 °F - 59.0 °F 50% 29.87 in 10.0 mi Calm Calm - N/A   Clear
9:54 PM 75.0 °F - 61.0 °F 62% 29.89 in 10.0 mi Calm Calm - N/A   Clear
10:54 PM 73.9 °F - 62.1 °F 66% 29.90 in 10.0 mi Calm Calm - N/A   Clear
11:54 PM 75.0 °F - 60.1 °F 60% 29.91 in 10.0 mi Calm Calm - N/A   Clear